Location: Unspecified
(0.0000°N, 0.0000°E)
Time: 16:16:46
(UTC+00:00)

ATLAS 5 CENTAUR DEB - Visible Passes

Search period start: 12 March 2026 00:00
Search period end: 22 March 2026 00:00
Orbit: 8743 x 34935 km, 22.3° (Epoch: 25 January)

Date Brightness Start Highest point End Pass type
(mag) Time Alt. Az. Time Alt. Az. Time Alt. Az.
12 Mar ? 18:20:40 10° W 20:41:37 24° WSW 06:04:54 10° ENE daylight
14 Mar ? 14:21:46 10° ESE 16:53:23 15° ESE 18:22:26 10° E visible
15 Mar ? 09:55:10 10° WNW 19:39:03 50° ESE 22:09:11 10° ENE visible
16 Mar ? 12:33:49 10° WNW 00:05:56 63° ENE 00:55:07 10° ENE visible
17 Mar ? 15:20:37 10° W 18:09:45 50° SW 03:34:00 10° ENE visible
18 Mar ? 19:04:27 10° WSW 20:54:45 17° WSW 00:18:09 10° WSW daylight
20 Mar ? 07:25:17 10° WNW 17:07:19 22° ESE 18:59:32 13° E visible
21 Mar ? 10:09:15 10° WNW 20:01:14 58° ESE 22:26:31 10° ENE visible
